Location: Roussillon
(43.9008°N, 5.2947°E)
Time: 08:14:53
(UTC+00:00)

Cosmos 1703 - Pass Details

Date: 07 June 2020
Orbit: 524 x 540 km, 82.5° (Epoch: 14 July)

Event Time Altitude Azimuth Distance (km) Brightness Sun altitude
Exits shadow 01:05:47 36° 269° (W) 853 4.0 -20.3°
Maximum altitude 01:06:09 37° 283° (WNW) 838 4.1 -20.3°
Drops below altitude 10° 01:09:51 10° 353° (N) 1,793 6.8 -20.1°
Sets 01:12:07 0° 1° (N) 2,686 8.1 -19.9°
